This is the latest recevied weather packets stored in our database for station/object AE5HO. If no packets are shown the sender has not sent any weather packets the latest 10 day(s).
| Time | Temp. | Humidity | Pressure | Rain* | Wind** | Luminosity | Snow |
|---|---|---|---|---|---|---|---|
| 1787500378 | 35.56° C | 43% | 1016.4 hPa | 0 mm | - | 503 W/m² | - |
| 1787500076 | 35.56° C | 44% | 1016.4 hPa | 0 mm | - | 498 W/m² | - |
| 1787499771 | 35° C | 45% | 1016.5 hPa | 0 mm | - | 547 W/m² | - |
| 1787499466 | 35° C | 45% | 1016.4 hPa | 0 mm | - | 505 W/m² | - |
| 1787499163 | 35° C | 45% | 1016.1 hPa | 0 mm | - | 481 W/m² | - |
| 1787498859 | 34.44° C | 44% | 1016.4 hPa | 0 mm | - | 445 W/m² | - |
| 1787498556 | 34.44° C | 44% | 1016.6 hPa | 0 mm | - | 262 W/m² | - |
| 1787498252 | 33.89° C | 45% | 1016.3 hPa | 0 mm | - | 220 W/m² | - |
| 1787497948 | 33.89° C | 46% | 1016.4 hPa | 0 mm | - | 347 W/m² | - |
| 1787497643 | 33.33° C | 47% | 1016.6 hPa | 0 mm | - | 146 W/m² | - |
| 1787497339 | 32.78° C | 51% | 1016.1 hPa | 0 mm | - | 131 W/m² | - |
| 1787497038 | 32.22° C | 50% | 1016.4 hPa | 0 mm | - | 125 W/m² | - |
| 1787496738 | 32.22° C | 54% | 1016.1 hPa | 0 mm | - | 97 W/m² | - |
| 1787496432 | 32.22° C | 53% | 1016.2 hPa | 0 mm | - | 103 W/m² | - |
| 1787496128 | 32.22° C | 56% | 1016.3 hPa | 0 mm | - | 119 W/m² | - |
| 1787495822 | 31.67° C | 59% | 1016.2 hPa | 0 mm | - | 120 W/m² | - |
| 1787495518 | 31.11° C | 60% | 1016.3 hPa | 0 mm | - | 100 W/m² | - |
| 1787495214 | 30.56° C | 61% | 1016.1 hPa | 0 mm | - | 71 W/m² | - |
| 1787494910 | 30.56° C | 62% | 1016.2 hPa | 0 mm | - | 59 W/m² | - |
| 1787494609 | 30.56° C | 61% | 1016.2 hPa | 0 mm | - | 57 W/m² | - |
| 1787494304 | 30.56° C | 61% | 1016.1 hPa | 0 mm | - | 61 W/m² | - |
| 1787494000 | 30° C | 62% | 1016.2 hPa | 0 mm | - | 59 W/m² | - |
| 1787493697 | 30° C | 62% | 1016.2 hPa | 0 mm | - | 62 W/m² | - |
| 1787493396 | 30° C | 62% | 1016.2 hPa | 0 mm | - | 60 W/m² | - |
| 1787493093 | 30° C | 62% | 1016.2 hPa | 0 mm | - | 59 W/m² | - |
* Rain latest hour (hover to see other rain measurements)
** Current wind speed in m/s (hover to see current wind gust speed)